EST,Max TemperatureF,Mean TemperatureF,Min TemperatureF,Max Dew PointF,MeanDew PointF,Min DewpointF,Max Humidity, Mean Humidity, Min Humidity, Max Sea Level PressureIn, Mean Sea Level PressureIn, Min Sea Level PressureIn, Max VisibilityMiles, Mean VisibilityMiles, Min VisibilityMiles, Max Wind SpeedMPH, Mean Wind SpeedMPH, Max Gust SpeedMPH,PrecipitationIn, CloudCover, Events, WindDirDegrees
2013-12-1,46,39,32,32,28,24,78,68,56,30.12,30.05,30.01,10,8,6,8,4,,0.00,4,,238
2013-12-2,39,33,27,30,28,24,93,81,65,30.00,29.94,29.88,10,6,2,10,3,,0.00,6,Snow,59
2013-12-3,48,40,33,43,36,30,93,87,80,29.88,29.85,29.81,9,3,2,10,7,,0.07,8,Rain,97
2013-12-4,60,50,41,54,46,39,93,85,77,29.88,29.79,29.65,10,5,2,15,4,21,0.00,8,,155
2013-12-5,59,44,30,54,33,21,84,72,64,30.19,29.93,29.66,10,10,7,14,10,23,0.00,6,,251
2013-12-6,30,28,26,21,19,15,69,65,61,30.43,30.29,30.17,10,10,10,12,8,,0.00,8,,325
2013-12-7,28,22,15,16,11,8,80,62,47,30.65,30.57,30.45,10,10,10,12,7,,0.00,5,,325
2013-12-8,28,22,16,25,18,9,93,77,61,30.59,30.25,30.00,10,7,1,15,6,20,0.01,7,Rain-Snow,80
2013-12-9,30,24,19,27,21,8,93,79,60,30.20,30.04,29.92,10,7,1,16,7,24,0.01,7,Rain-Snow,237
2013-12-10,26,18,10,10,6,1,70,58,44,30.29,30.17,30.04,10,10,10,21,8,34,0.00,2,,244
2013-12-11,26,18,5,18,13,0,86,75,59,30.51,30.34,30.27,10,5,0,14,7,24,0.01,6,Snow,250
2013-12-12,19,10,1,6,1,-5,80,66,50,30.53,30.42,30.28,10,10,9,14,7,25,0.00,2,,226
2013-12-13,30,21,12,20,12,5,72,64,56,30.28,30.24,30.20,10,10,6,9,6,,0.00,3,,170
2013-12-14,28,26,21,23,21,17,88,85,69,30.23,30.01,29.80,10,2,0,14,9,22,0.22,8,Fog-Snow,49
2013-12-15,24,18,10,20,13,5,86,77,68,30.12,29.96,29.88,10,7,1,15,8,24,0.00,7,Snow,237
2013-12-16,19,14,8,16,11,3,93,79,62,30.22,30.09,30.00,10,6,1,8,4,,0.05,6,Snow,86
2013-12-17,26,22,17,21,18,15,93,85,78,30.08,30.01,29.94,6,4,0,16,6,22,0.02,7,Fog-Snow,232
2013-12-18,32,24,19,18,14,13,85,70,56,30.22,30.11,29.95,10,10,7,15,8,22,0.00,1,,219
2013-12-19,42,38,33,34,29,20,81,69,56,30.01,29.96,29.90,10,10,7,14,9,23,0.00,3,,201
2013-12-20,55,48,41,54,45,34,94,90,73,29.88,29.78,29.72,10,3,1,15,8,21,0.15,8,Rain,202
2013-12-21,55,44,34,54,38,32,94,90,82,29.84,29.77,29.59,9,5,2,16,7,24,1.32,8,Rain,9
2013-12-22,41,37,33,37,33,30,96,88,79,30.02,29.74,29.49,10,6,2,20,7,26,0.16,8,Rain,240
2013-12-23,34,26,18,30,22,8,87,73,58,30.39,30.23,30.03,10,10,6,13,7,20,0.00,7,Snow,253
2013-12-24,21,14,8,10,5,1,84,72,62,30.58,30.49,30.35,10,8,2,13,6,18,0.00,4,Snow,246
2013-12-25,27,20,14,21,16,9,81,75,68,30.51,30.31,30.16,10,7,1,14,8,22,0.00,8,Snow,195
2013-12-26,30,27,24,27,21,12,93,77,51,30.33,30.19,30.08,10,7,2,13,9,25,0.00,7,Snow,221
2013-12-27,42,36,30,30,27,23,76,70,62,30.36,30.27,30.17,10,10,10,14,8,22,0.00,4,,215
2013-12-28,48,42,36,35,31,29,76,68,58,30.17,30.09,29.95,10,10,10,16,11,23,0.00,0,,213
2013-12-29,45,36,27,32,28,16,82,70,58,30.05,29.85,29.74,10,9,6,17,8,24,0.00,5,,262
2013-12-30,26,22,19,16,13,10,72,66,59,30.28,30.20,30.05,10,9,2,15,7,24,0.00,8,Snow,301
2013-12-31,19,17,15,14,10,6,81,74,59,30.37,30.25,30.12,10,6,2,14,8,23,0.00,8,Snow,252